Home   Weather   Matsuyama   Past weeks
Flag for Japan

Past Weather in Matsuyama, Japan — Yesterday and Last 2 Weeks

Now
46 °F

Broken clouds.


Feels Like: 40 °F
Forecast: 42 / 47 °F
Wind: 15 mph from North

Location: Matsuyama Airport

Current Time: Jan 16, 2019 at 8:31:16 am

Latest Report: Jan 16, 2019 at 8:00 am


Visibility: N/A

Pressure: 30.09 "Hg

Humidity: 71%

Dew Point: 37 °F

Location of MatsuyamaLocation

Past Weather in Matsuyama — Graph

°F

Matsuyama Temperature Yesterday

Maximum temperature yesterday: 57 °F (at 12:00 pm)
Minimum temperature yesterday: 45 °F (at 6:10 am)
Average temperature yesterday: 51 °F

High & Low Weather Summary for the Past Weeks

 TemperatureHumidityPressure
High57 °F (Jan 15, 12:00 pm)100% (Jan 12, 10:00 am)30.45 "Hg (Jan 12, 10:00 am)
Low34 °F (Jan 1, 7:00 am)37% (Jan 9, 1:00 pm)30.04 "Hg (Jan 12, 1:00 pm)
Average47 °F65%30.22 "Hg
* Reported Jan 1 7:00 am — Jan 16 7:00 am, Matsuyama. Weather by CustomWeather, © 2019

Note: Actual official high and low records may vary slightly from our data, if they occured in-between our weather recording intervals... More about our weather records

Advertising

Matsuyama Weather History for the Previous 24 Hours

Scroll right to see more
 ConditionsComfort  
Time TempWeatherWind HumidityBarometerVisibility
7:00 am
Wed, Jan 16
46 °FSprinkles. Partly cloudy.16 mph76%30.07 "HgN/A
6:10 am48 °FPassing clouds.20 mph66%30.07 "HgN/A
9:00 pm
Tue, Jan 15
48 °FPassing clouds.17 mph62%30.09 "HgN/A
8:00 pm50 °FPartly cloudy.15 mph62%30.09 "Hg6 mi
7:00 pm52 °FPassing clouds.20 mph67%30.07 "Hg6 mi
6:00 pm52 °FPartly cloudy.20 mph62%30.04 "HgN/A
5:00 pm54 °FBroken clouds.17 mph58%30.04 "Hg6 mi
4:00 pm54 °FBroken clouds.16 mph67%30.04 "Hg6 mi
3:00 pm54 °FLight rain. Partly sunny.17 mph77%30.07 "HgN/A
2:00 pm55 °FBroken clouds.16 mph67%30.07 "HgN/A
1:00 pm55 °FBroken clouds.14 mph67%30.07 "HgN/A
12:00 pm57 °FPartly sunny.10 mph67%30.09 "HgN/A
11:00 am55 °FBroken clouds.7 mph72%30.12 "HgN/A
10:00 am48 °FBroken clouds.8 mph82%30.12 "HgN/A
9:00 am46 °FLight rain. Partly sunny.9 mph82%30.12 "HgN/A
8:00 am45 °FLight rain. Partly sunny.7 mph76%30.12 "HgN/A
Weather by CustomWeather, © 2019

See weather overview